EN

Hourly Weather Dziegietnia

Today, 24 October, Saturday

Time Temperature Precipitation Wind Pressure Humidity
00:00 +13°C° 0.2 mm 2 mps 742 mmHg 91%
01:00 +13°C° 0.2 mm 2 mps 742 mmHg 89%
02:00 +12°C° 0 mm 3 mps 742 mmHg 87%
03:00 +12°C° 0 mm 3 mps 742 mmHg 85%
04:00 +12°C° 0 mm 4 mps 741 mmHg 83%
05:00 +11°C° 0.2 mm 4 mps 742 mmHg 86%
06:00 +11°C° 0.2 mm 4 mps 742 mmHg 89%
07:00 +11°C° 0.2 mm 4 mps 742 mmHg 91%
08:00 +12°C° 0.1 mm 4 mps 742 mmHg 90%
09:00 +12°C° 0.1 mm 4 mps 742 mmHg 89%
10:00 +13°C° 0.1 mm 4 mps 743 mmHg 88%
11:00 +13°C° 0 mm 4 mps 743 mmHg 81%
12:00 +14°C° 0 mm 4 mps 743 mmHg 74%
13:00 +15°C° 0 mm 4 mps 744 mmHg 67%
14:00 +14°C° 0 mm 3 mps 744 mmHg 71%
15:00 +13°C° 0 mm 3 mps 744 mmHg 75%
16:00 +13°C° 0 mm 2 mps 744 mmHg 80%
17:00 +12°C° 0 mm 3 mps 744 mmHg 83%
18:00 +11°C° 0 mm 3 mps 745 mmHg 86%
19:00 +11°C° 0 mm 3 mps 745 mmHg 89%
20:00 +10°C° 0 mm 3 mps 745 mmHg 90%
21:00 +10°C° 0 mm 3 mps 745 mmHg 92%
22:00 +10°C° 0 mm 3 mps 746 mmHg 94%
23:00 +10°C° 0 mm 3 mps 746 mmHg 94%

Tomorrow, 25 October, Sunday

Time Temperature Precipitation Wind Pressure Humidity
00:00 +10°C° 0 mm 2 mps 746 mmHg 94%
01:00 +9°C° 0 mm 2 mps 746 mmHg 94%
02:00 +9°C° 0 mm 2 mps 746 mmHg 94%
03:00 +9°C° 0 mm 2 mps 746 mmHg 94%
04:00 +9°C° 0 mm 2 mps 746 mmHg 95%
05:00 +9°C° 0 mm 2 mps 746 mmHg 95%
06:00 +9°C° 0 mm 2 mps 746 mmHg 95%
07:00 +9°C° 0 mm 2 mps 746 mmHg 95%
08:00 +10°C° 0 mm 2 mps 746 mmHg 89%
09:00 +13°C° 0 mm 2 mps 747 mmHg 83%
10:00 +14°C° 0 mm 2 mps 747 mmHg 77%
11:00 +15°C° 0 mm 2 mps 746 mmHg 73%
12:00 +16°C° 0 mm 2 mps 746 mmHg 69%
13:00 +16°C° 0 mm 2 mps 746 mmHg 65%
14:00 +16°C° 0 mm 2 mps 746 mmHg 69%
15:00 +15°C° 0 mm 2 mps 746 mmHg 73%
16:00 +14°C° 0 mm 2 mps 745 mmHg 78%
17:00 +12°C° 0 mm 3 mps 745 mmHg 80%
18:00 +11°C° 0 mm 3 mps 745 mmHg 83%
19:00 +10°C° 0 mm 3 mps 746 mmHg 86%
20:00 +10°C° 0 mm 3 mps 745 mmHg 87%
21:00 +10°C° 0 mm 3 mps 745 mmHg 88%
22:00 +9°C° 0 mm 3 mps 745 mmHg 89%
23:00 +9°C° 0 mm 3 mps 745 mmHg 89%

Day after tomorrow, 26 October, Monday

Time Temperature Precipitation Wind Pressure Humidity
00:00 +8°C° 0 mm 4 mps 745 mmHg 89%
01:00 +8°C° 0 mm 4 mps 744 mmHg 88%
02:00 +8°C° 0 mm 4 mps 744 mmHg 89%
03:00 +8°C° 0 mm 5 mps 743 mmHg 89%
04:00 +8°C° 0 mm 5 mps 743 mmHg 90%
05:00 +8°C° 0 mm 5 mps 743 mmHg 90%
06:00 +9°C° 0 mm 5 mps 743 mmHg 91%
07:00 +9°C° 0 mm 6 mps 743 mmHg 92%
08:00 +10°C° 0 mm 6 mps 743 mmHg 89%
09:00 +11°C° 0 mm 6 mps 742 mmHg 85%
10:00 +13°C° 0 mm 6 mps 742 mmHg 82%
11:00 +14°C° 0 mm 6 mps 742 mmHg 77%
12:00 +15°C° 0 mm 6 mps 742 mmHg 72%
13:00 +16°C° 0 mm 6 mps 742 mmHg 66%
14:00 +16°C° 0 mm 6 mps 742 mmHg 69%
15:00 +15°C° 0 mm 5 mps 741 mmHg 72%
16:00 +14°C° 0 mm 4 mps 741 mmHg 74%
17:00 +14°C° 0 mm 4 mps 741 mmHg 76%
18:00 +14°C° 0 mm 5 mps 741 mmHg 78%
19:00 +14°C° 0 mm 5 mps 741 mmHg 79%
20:00 +13°C° 0 mm 5 mps 741 mmHg 82%
21:00 +12°C° 0 mm 5 mps 742 mmHg 84%
22:00 +12°C° 0 mm 5 mps 742 mmHg 87%
23:00 +12°C° 0 mm 5 mps 742 mmHg 85%

, 27 October, Tuesday

Time Temperature Precipitation Wind Pressure Humidity
00:00 +12°C° 0 mm 5 mps 742 mmHg 84%
01:00 +13°C° 0 mm 5 mps 742 mmHg 82%
02:00 +13°C° 0 mm 5 mps 742 mmHg 82%
03:00 +13°C° 0 mm 4 mps 742 mmHg 82%
04:00 +13°C° 0 mm 4 mps 742 mmHg 82%
05:00 +12°C° 0 mm 4 mps 742 mmHg 83%
06:00 +12°C° 0 mm 4 mps 742 mmHg 83%
07:00 +12°C° 0 mm 4 mps 742 mmHg 84%
08:00 +13°C° 0 mm 4 mps 743 mmHg 81%
09:00 +14°C° 0 mm 5 mps 743 mmHg 78%
10:00 +15°C° 0 mm 5 mps 743 mmHg 75%
11:00 +15°C° 0 mm 5 mps 743 mmHg 72%
12:00 +16°C° 0 mm 5 mps 743 mmHg 69%
13:00 +17°C° 0 mm 5 mps 743 mmHg 66%
14:00 +17°C° 0 mm 4 mps 743 mmHg 69%
15:00 +16°C° 0 mm 3 mps 743 mmHg 73%
16:00 +14°C° 0 mm 3 mps 743 mmHg 76%
17:00 +14°C° 0 mm 3 mps 743 mmHg 78%
18:00 +13°C° 0 mm 3 mps 743 mmHg 81%
19:00 +13°C° 0 mm 3 mps 744 mmHg 83%
20:00 +12°C° 0 mm 3 mps 744 mmHg 86%
21:00 +12°C° 0 mm 3 mps 744 mmHg 89%
22:00 +11°C° 0 mm 3 mps 744 mmHg 92%
23:00 +11°C° 0 mm 3 mps 744 mmHg 92%

27 October, Tuesday

Time Temperature Precipitation Wind Pressure Humidity
00:00 +12°C° 0 mm 5 mps 742 mmHg 84%
01:00 +13°C° 0 mm 5 mps 742 mmHg 82%
02:00 +13°C° 0 mm 5 mps 742 mmHg 82%
03:00 +13°C° 0 mm 4 mps 742 mmHg 82%
04:00 +13°C° 0 mm 4 mps 742 mmHg 82%
05:00 +12°C° 0 mm 4 mps 742 mmHg 83%
06:00 +12°C° 0 mm 4 mps 742 mmHg 83%
07:00 +12°C° 0 mm 4 mps 742 mmHg 84%
08:00 +13°C° 0 mm 4 mps 743 mmHg 81%
09:00 +14°C° 0 mm 5 mps 743 mmHg 78%
10:00 +15°C° 0 mm 5 mps 743 mmHg 75%
11:00 +15°C° 0 mm 5 mps 743 mmHg 72%
12:00 +16°C° 0 mm 5 mps 743 mmHg 69%
13:00 +17°C° 0 mm 5 mps 743 mmHg 66%
14:00 +17°C° 0 mm 4 mps 743 mmHg 69%
15:00 +16°C° 0 mm 3 mps 743 mmHg 73%
16:00 +14°C° 0 mm 3 mps 743 mmHg 76%
17:00 +14°C° 0 mm 3 mps 743 mmHg 78%
18:00 +13°C° 0 mm 3 mps 743 mmHg 81%
19:00 +13°C° 0 mm 3 mps 744 mmHg 83%
20:00 +12°C° 0 mm 3 mps 744 mmHg 86%
21:00 +12°C° 0 mm 3 mps 744 mmHg 89%
22:00 +11°C° 0 mm 3 mps 744 mmHg 92%
23:00 +11°C° 0 mm 3 mps 744 mmHg 92%

28 October, Wednesday

Time Temperature Precipitation Wind Pressure Humidity
00:00 +12°C° 0 mm 2 mps 744 mmHg 93%
01:00 +12°C° 0 mm 2 mps 744 mmHg 94%
02:00 +12°C° 0 mm 2 mps 744 mmHg 94%
03:00 +10°C° 0 mm 3 mps 744 mmHg 95%
04:00 +10°C° 0 mm 3 mps 744 mmHg 95%
05:00 +10°C° 0 mm 3 mps 744 mmHg 95%
06:00 +10°C° 0 mm 3 mps 745 mmHg 96%
07:00 +10°C° 0 mm 3 mps 745 mmHg 96%
08:00 +11°C° 0 mm 3 mps 745 mmHg 91%
09:00 +12°C° 0 mm 3 mps 745 mmHg 87%
10:00 +13°C° 0 mm 3 mps 745 mmHg 82%
11:00 +14°C° 0 mm 3 mps 745 mmHg 79%
12:00 +16°C° 0 mm 3 mps 745 mmHg 76%
13:00 +17°C° 0 mm 3 mps 745 mmHg 73%
14:00 +16°C° 0 mm 3 mps 745 mmHg 77%
15:00 +15°C° 0 mm 2 mps 744 mmHg 81%
16:00 +14°C° 0 mm 2 mps 744 mmHg 85%
17:00 +14°C° 0 mm 2 mps 744 mmHg 87%
18:00 +12°C° 0 mm 3 mps 745 mmHg 90%
19:00 +12°C° 0 mm 3 mps 745 mmHg 92%
20:00 +12°C° 0 mm 3 mps 745 mmHg 91%
21:00 +11°C° 0 mm 3 mps 745 mmHg 91%
22:00 +11°C° 0 mm 3 mps 745 mmHg 90%
23:00 +11°C° 0 mm 3 mps 745 mmHg 90%

29 October, Thursday

Time Temperature Precipitation Wind Pressure Humidity
00:00 +12°C° 0 mm 2 mps 745 mmHg 89%
01:00 +12°C° 0 mm 2 mps 745 mmHg 89%
02:00 +12°C° 0 mm 2 mps 745 mmHg 90%
03:00 +10°C° 0 mm 2 mps 745 mmHg 92%
04:00 +10°C° 0 mm 2 mps 744 mmHg 93%
05:00 +10°C° 0 mm 2 mps 745 mmHg 93%
06:00 +10°C° 0 mm 2 mps 745 mmHg 93%
07:00 +10°C° 0 mm 2 mps 745 mmHg 93%
08:00 +11°C° 0 mm 3 mps 745 mmHg 88%
09:00 +11°C° 0 mm 3 mps 746 mmHg 82%
10:00 +12°C° 0 mm 4 mps 746 mmHg 76%
11:00 +13°C° 0 mm 4 mps 746 mmHg 71%
12:00 +13°C° 0 mm 4 mps 746 mmHg 67%
13:00 +14°C° 0 mm 4 mps 746 mmHg 62%
14:00 +13°C° 0 mm 4 mps 747 mmHg 66%
15:00 +12°C° 0 mm 4 mps 747 mmHg 69%
16:00 +11°C° 0 mm 3 mps 747 mmHg 73%
17:00 +11°C° 0 mm 3 mps 748 mmHg 75%
18:00 +10°C° 0 mm 3 mps 748 mmHg 78%
19:00 +9°C° 0 mm 3 mps 749 mmHg 80%
20:00 +9°C° 0 mm 3 mps 749 mmHg 82%
21:00 +8°C° 0 mm 3 mps 750 mmHg 84%
22:00 +8°C° 0 mm 3 mps 750 mmHg 87%
23:00 +8°C° 0 mm 3 mps 750 mmHg 88%
Show more